Airfield :
LOGIN :

Register | Disclaimer

   EN    FR    IT 

 










Legend :    VFR   Marginal VFR   IFR   Intensive IFR   Very Intensive IFR
Visi :
Ceiling :
>= 8 km
>= 3000ft
5 to 8 km
1000 to 3000 ft
1500m to 5 km
500 to 1000 ft
800 to 1500m
200 to 500 ft
< 800m
< 200 ft
Symbols :   Thunderstorms  Fog  Heavy snow  Heavy precipitations  Wind > 20 kt
SIGMETs :     Misc.  Thunderstorms  Icing  Turbulence  Mountain Waves  Volcanic Ashes







- Airport Elevation : 138 ft
- IATA code : RLG


ETNL - Rostock Laage

CURRENT METAR :
  • 180642Z VRB02KT 9999 FEW025 M01/M03 Q1022 BLU+BLU+ TEMPO WHT

EXPIRED METARs :
  • 180620Z VRB02KT 9999 FEW025 M01/M03 Q1022 BLACKBLU+BLU+ TEMPO WHT
  • 180520Z 15003KT 9999 SCT025 M01/M02 Q1021 BLU+BLU+ TEMPO WHT
  • 180420Z 17003KT 9999 BKN024 M01/M02 Q1021 WHT

TAF TAF ETNL
Valid from the 18 at 06:00 until the 18 at 15:00 UTC


180520Z 1806/1815 17005KT 9999 NSW SCT030
TEMPO 1806/1810 16004KT 8000 NSW BKN020 BY ETGL
No reported NOTAMs for that airfield.



MET'MAP, your aeronautical weather chart ! - Copyright ORBIFLY December 2007 - Disclaimer

ORBIFLY MET'MAP TEAM :

Programming & Development : Alexandra Zaïnal
Concept & Development : Baudouin d'Aumeries
Co-Development & Prog : Marc-Olivier Méhu
Technical & hardware support : Manuel Goepfert

Contact : metmap@orbifly.com




SOURCES & CREDITS :

   NOAA